This is the latest recevied weather packets stored in our database for station/object WW5JC. If no packets are shown the sender has not sent any weather packets the latest 1 day(s).
| Time | Temp. | Humidity | Pressure | Rain* | Wind** | Luminosity | Snow |
|---|---|---|---|---|---|---|---|
| 1778041889 | 15.56° C | 85% | 1010.4 hPa | 0 mm | - | 0 W/m² | - |
| 1778041587 | 15.56° C | 85% | 1010.6 hPa | 0 mm | - | 0 W/m² | - |
| 1778041285 | 15.56° C | 85% | 1010.3 hPa | 0 mm | - | 0 W/m² | - |
| 1778040984 | 15.56° C | 85% | 1010.5 hPa | 0 mm | - | 0 W/m² | - |
| 1778040680 | 15.56° C | 85% | 1010.4 hPa | 0 mm | - | 0 W/m² | - |
| 1778040378 | 16.11° C | 85% | 1010.4 hPa | 0 mm | - | 0 W/m² | - |
| 1778039468 | 16.11° C | 85% | 1010.3 hPa | 0 mm | - | 0 W/m² | - |
| 1778039166 | 16.11° C | 85% | 1010.1 hPa | 0 mm | - | 0 W/m² | - |
| 1778038863 | 16.67° C | 84% | 1010.1 hPa | 0 mm | - | 0 W/m² | - |
| 1778038256 | 17.22° C | 84% | 1009.8 hPa | 0 mm | - | 0 W/m² | - |
| 1778037954 | 17.78° C | 86% | 1009.9 hPa | 0 mm | - | 0 W/m² | - |
| 1778037348 | 17.78° C | 85% | 1009.4 hPa | 0 mm | - | 0 W/m² | - |
| 1778037045 | 17.78° C | 85% | 1009.5 hPa | 0 mm | - | 0 W/m² | - |
| 1778036440 | 18.33° C | 85% | 1009.2 hPa | 0 mm | - | 0 W/m² | - |
| 1778036137 | 18.33° C | 84% | 1008.9 hPa | 0 mm | - | 0 W/m² | - |
| 1778035832 | 18.33° C | 85% | 1009 hPa | 0 mm | - | 0 W/m² | - |
| 1778035226 | 18.89° C | 84% | 1008.7 hPa | 0 mm | - | 0 W/m² | - |
| 1778034922 | 19.44° C | 83% | 1008.8 hPa | 0 mm | - | 0 W/m² | - |
| 1778034620 | 19.44° C | 83% | 1008.9 hPa | 0 mm | - | 0 W/m² | - |
| 1778034317 | 20° C | 84% | 1008.3 hPa | 0 mm | - | 0 W/m² | - |
| 1778034015 | 20° C | 84% | 1008.1 hPa | 0 mm | - | 0 W/m² | - |
| 1778033712 | 20° C | 84% | 1008.3 hPa | 0 mm | - | 0 W/m² | - |
| 1778033409 | 20.56° C | 84% | 1008.3 hPa | 0 mm | - | 0 W/m² | - |
| 1778032804 | 20.56° C | 83% | 1008.6 hPa | 0 mm | - | 0 W/m² | - |
| 1778032501 | 21.11° C | 82% | 1007.7 hPa | 0 mm | - | 0 W/m² | - |
* Rain latest hour (hover to see other rain measurements)
** Current wind speed in m/s (hover to see current wind gust speed)